Hourly Weather Bamenda

Today, 7 July, Tuesday

Time Temperature Precipitation Wind Pressure Humidity
00:00 +19°C° 1.2 mm 1 mps 641 mmHg 97%
01:00 +19°C° 1.2 mm 1 mps 640 mmHg 97%
02:00 +19°C° 1 mm 1 mps 640 mmHg 97%
03:00 +19°C° 1 mm 1 mps 640 mmHg 97%
04:00 +17°C° 1 mm 0 mps 640 mmHg 97%
05:00 +17°C° 3.2 mm 0 mps 640 mmHg 98%
06:00 +17°C° 3.2 mm 0 mps 640 mmHg 98%
07:00 +17°C° 3.2 mm 0 mps 640 mmHg 98%
08:00 +19°C° 1.8 mm 1 mps 641 mmHg 97%
09:00 +20°C° 1.8 mm 1 mps 641 mmHg 96%
10:00 +20°C° 1.8 mm 1 mps 642 mmHg 95%
11:00 +21°C° 0.8 mm 1 mps 642 mmHg 92%
12:00 +23°C° 0.8 mm 1 mps 642 mmHg 88%
13:00 +22°C° 0.8 mm 0 mps 642 mmHg 85%
14:00 +23°C° 1.6 mm 1 mps 641 mmHg 87%
15:00 +22°C° 1.6 mm 1 mps 640 mmHg 90%
16:00 +22°C° 1.6 mm 1 mps 639 mmHg 92%
17:00 +21°C° 0.7 mm 1 mps 639 mmHg 94%
18:00 +20°C° 0.7 mm 1 mps 639 mmHg 96%
19:00 +19°C° 0.7 mm 1 mps 640 mmHg 97%
20:00 +19°C° 0.1 mm 1 mps 640 mmHg 97%
21:00 +19°C° 0.1 mm 1 mps 640 mmHg 97%
22:00 +18°C° 0.1 mm 1 mps 641 mmHg 97%
23:00 +18°C° 0 mm 1 mps 640 mmHg 97%

Tomorrow, 8 July, Wednesday

Time Temperature Precipitation Wind Pressure Humidity
00:00 +18°C° 0 mm 1 mps 640 mmHg 97%
01:00 +18°C° 0 mm 1 mps 640 mmHg 97%
02:00 +18°C° 0.1 mm 1 mps 640 mmHg 97%
03:00 +18°C° 0.1 mm 1 mps 640 mmHg 97%
04:00 +18°C° 0.1 mm 1 mps 640 mmHg 97%
05:00 +18°C° 0.3 mm 1 mps 640 mmHg 97%
06:00 +16°C° 0.3 mm 0 mps 640 mmHg 98%
07:00 +16°C° 0.3 mm 0 mps 641 mmHg 98%
08:00 +16°C° 0.4 mm 0 mps 641 mmHg 97%
09:00 +17°C° 0.4 mm 0 mps 641 mmHg 96%
10:00 +17°C° 0.4 mm 0 mps 642 mmHg 95%
11:00 +18°C° 0.3 mm 0 mps 641 mmHg 94%
12:00 +18°C° 0.3 mm 0 mps 641 mmHg 94%
13:00 +20°C° 0.3 mm 1 mps 641 mmHg 93%
14:00 +21°C° 0.4 mm 1 mps 641 mmHg 89%
15:00 +22°C° 0.4 mm 1 mps 640 mmHg 86%
16:00 +23°C° 0.4 mm 1 mps 640 mmHg 82%
17:00 +22°C° 1.1 mm 1 mps 640 mmHg 87%
18:00 +21°C° 1.1 mm 1 mps 640 mmHg 91%
19:00 +18°C° 1.1 mm 0 mps 640 mmHg 96%
20:00 +17°C° 1.1 mm 0 mps 640 mmHg 96%
21:00 +17°C° 1.1 mm 0 mps 641 mmHg 96%
22:00 +17°C° 1.1 mm 0 mps 641 mmHg 97%
23:00 +17°C° 0.6 mm 0 mps 641 mmHg 97%

Day after tomorrow, 9 July, Thursday

Time Temperature Precipitation Wind Pressure Humidity
00:00 +16°C° 0.6 mm 0 mps 640 mmHg 97%
01:00 +16°C° 0.6 mm 0 mps 640 mmHg 98%
02:00 +16°C° 0.2 mm 0 mps 640 mmHg 98%
03:00 +16°C° 0.2 mm 0 mps 640 mmHg 97%
04:00 +16°C° 0.2 mm 0 mps 640 mmHg 97%
05:00 +16°C° 0.2 mm 0 mps 640 mmHg 97%
06:00 +16°C° 0.2 mm 0 mps 640 mmHg 97%
07:00 +16°C° 0.2 mm 0 mps 641 mmHg 97%
08:00 +17°C° 0.2 mm 0 mps 641 mmHg 96%
09:00 +17°C° 0.2 mm 0 mps 642 mmHg 95%
10:00 +18°C° 0.2 mm 0 mps 642 mmHg 94%
11:00 +21°C° 0.6 mm 1 mps 642 mmHg 91%
12:00 +22°C° 0.6 mm 1 mps 642 mmHg 88%
13:00 +23°C° 0.6 mm 1 mps 642 mmHg 85%
14:00 +23°C° 1 mm 1 mps 641 mmHg 87%
15:00 +20°C° 1 mm 0 mps 640 mmHg 88%
16:00 +20°C° 1 mm 0 mps 640 mmHg 90%
17:00 +19°C° 1.1 mm 0 mps 640 mmHg 92%
18:00 +18°C° 1.1 mm 0 mps 640 mmHg 94%
19:00 +19°C° 1.1 mm 1 mps 640 mmHg 96%
20:00 +17°C° 0.6 mm 0 mps 641 mmHg 96%
21:00 +17°C° 0.6 mm 0 mps 641 mmHg 96%
22:00 +17°C° 0.6 mm 0 mps 641 mmHg 96%
23:00 +16°C° 0.3 mm 0 mps 641 mmHg 96%

10 July, Friday

Time Temperature Precipitation Wind Pressure Humidity
00:00 +16°C° 0.3 mm 0 mps 641 mmHg 96%
01:00 +16°C° 0.3 mm 0 mps 641 mmHg 96%
02:00 +16°C° 0.2 mm 0 mps 640 mmHg 97%
03:00 +16°C° 0.2 mm 0 mps 640 mmHg 97%
04:00 +18°C° 0.2 mm 1 mps 640 mmHg 97%
05:00 +18°C° 0.5 mm 1 mps 640 mmHg 97%
06:00 +18°C° 0.5 mm 1 mps 641 mmHg 97%
07:00 +18°C° 0.5 mm 1 mps 641 mmHg 97%
08:00 +19°C° 0.4 mm 1 mps 641 mmHg 96%
09:00 +20°C° 0.4 mm 1 mps 642 mmHg 94%
10:00 +21°C° 0.4 mm 1 mps 642 mmHg 93%
11:00 +22°C° 1 mm 1 mps 642 mmHg 91%
12:00 +22°C° 1 mm 1 mps 642 mmHg 89%
13:00 +23°C° 1 mm 1 mps 642 mmHg 87%
14:00 +23°C° 1.6 mm 1 mps 641 mmHg 89%
15:00 +22°C° 1.6 mm 1 mps 641 mmHg 91%
16:00 +21°C° 1.6 mm 1 mps 640 mmHg 93%
17:00 +20°C° 0.9 mm 1 mps 640 mmHg 94%
18:00 +20°C° 0.9 mm 1 mps 640 mmHg 96%
19:00 +19°C° 0.9 mm 1 mps 640 mmHg 97%
20:00 +19°C° 0.6 mm 1 mps 641 mmHg 97%
21:00 +19°C° 0.6 mm 1 mps 641 mmHg 97%
22:00 +18°C° 0.6 mm 1 mps 641 mmHg 97%
23:00 +18°C° 0.4 mm 1 mps 641 mmHg 98%

11 July, Saturday

Time Temperature Precipitation Wind Pressure Humidity
00:00 +18°C° 0.4 mm 1 mps 641 mmHg 98%
01:00 +18°C° 0.4 mm 1 mps 641 mmHg 98%
02:00 +18°C° 0.2 mm 1 mps 641 mmHg 98%
03:00 +18°C° 0.2 mm 1 mps 641 mmHg 98%
04:00 +18°C° 0.2 mm 1 mps 640 mmHg 98%
05:00 +18°C° 0.1 mm 1 mps 641 mmHg 98%
06:00 +18°C° 0.1 mm 1 mps 641 mmHg 98%
07:00 +18°C° 0.1 mm 1 mps 641 mmHg 98%
08:00 +19°C° 0.2 mm 1 mps 642 mmHg 95%
09:00 +20°C° 0.2 mm 1 mps 642 mmHg 92%
10:00 +21°C° 0.2 mm 1 mps 643 mmHg 89%
11:00 +22°C° 1.5 mm 1 mps 643 mmHg 89%
12:00 +22°C° 1.5 mm 1 mps 642 mmHg 89%
13:00 +23°C° 1.5 mm 1 mps 642 mmHg 89%
14:00 +22°C° 1.8 mm 1 mps 641 mmHg 89%
15:00 +22°C° 1.8 mm 1 mps 641 mmHg 90%
16:00 +22°C° 1.8 mm 1 mps 640 mmHg 90%
17:00 +21°C° 0.7 mm 1 mps 640 mmHg 93%
18:00 +20°C° 0.7 mm 1 mps 640 mmHg 95%
19:00 +19°C° 0.7 mm 1 mps 640 mmHg 97%
20:00 +19°C° 0.2 mm 1 mps 640 mmHg 97%
21:00 +18°C° 0.2 mm 1 mps 641 mmHg 97%
22:00 +18°C° 0.2 mm 1 mps 641 mmHg 98%
23:00 +18°C° 0 mm 1 mps 641 mmHg 98%

12 July, Sunday

Time Temperature Precipitation Wind Pressure Humidity
00:00 +18°C° 0 mm 1 mps 641 mmHg 98%
01:00 +18°C° 0 mm 1 mps 641 mmHg 98%
02:00 +18°C° 0 mm 1 mps 641 mmHg 97%
03:00 +16°C° 0 mm 0 mps 640 mmHg 97%
04:00 +15°C° 0 mm 0 mps 640 mmHg 97%
05:00 +16°C° 0 mm 0 mps 641 mmHg 97%
06:00 +16°C° 0 mm 0 mps 641 mmHg 97%
07:00 +16°C° 0 mm 0 mps 641 mmHg 96%
08:00 +18°C° 0 mm 0 mps 642 mmHg 91%
09:00 +21°C° 0 mm 1 mps 643 mmHg 86%
10:00 +23°C° 0 mm 1 mps 644 mmHg 81%
11:00 +23°C° 0.6 mm 1 mps 643 mmHg 81%
12:00 +24°C° 0.6 mm 1 mps 643 mmHg 80%
13:00 +24°C° 0.6 mm 1 mps 643 mmHg 80%
14:00 +24°C° 1.9 mm 1 mps 642 mmHg 83%
15:00 +23°C° 1.9 mm 1 mps 642 mmHg 86%
16:00 +23°C° 1.9 mm 1 mps 641 mmHg 89%
17:00 +22°C° 1.7 mm 1 mps 641 mmHg 91%
18:00 +19°C° 1.7 mm 0 mps 641 mmHg 93%
19:00 +17°C° 1.7 mm 0 mps 641 mmHg 96%
20:00 +17°C° 0.9 mm 0 mps 641 mmHg 96%
21:00 +17°C° 0.9 mm 0 mps 642 mmHg 96%
22:00 +17°C° 0.9 mm 0 mps 642 mmHg 96%
23:00 +17°C° 0.6 mm 0 mps 642 mmHg 97%
Show more